Home   Weather   Al Khor   Past weeks

Flag for Qatar Past Weather in Al Khor, Qatar — Yesterday and Last 2 Weeks

Now
82 °F

Clear.


Feels Like: 83 °F
Forecast: 72 / 93 °F
Wind: 5 mph from East

Location: Doha International Airport

Current Time: Apr 24, 2017 at 10:18:53 pm

Latest Report: Apr 24, 2017 at 9:00 pm


Visibility: 10 mi

Pressure: 29.77 "Hg

Humidity: 48%

Dew Point: 61 °F

Location of Al KhorLocation

Past Weather in Al Khor — Graph

°F

Al Khor Temperature Yesterday

Maximum temperature yesterday: 97 °F (at 11:00 am)
Minimum temperature yesterday: 75 °F (at 3:00 am)
Average temperature yesterday: 85 °F

High & Low Weather Summary for the Past Weeks

 TemperatureHumidityPressure
High140 °F (Apr 10, 8:00 am)74% (Apr 13, 6:00 am)29.92 "Hg (Apr 13, 6:00 am)
Low75 °F (Apr 15, 4:00 am)9% (Apr 10, 8:00 am)29.68 "Hg (Apr 16, 1:00 am)
Average86 °F40%29.81 "Hg
* Reported Apr 9 9:00 pm — Apr 24 9:00 pm, Al Khor, Weather by CustomWeather, © 2017

Note: Actual official high and low records may vary slightly from our data, if they occured in-between our weather recording intervals... More about our weather records

Advertising

Al Khor Weather History for the Previous 24 Hours

Scroll right to see more
 ConditionsComfort  
Time TempWeatherWind HumidityBarometerVisibility
9:00 pm
Mon, Apr 24
82 °FClear.5 mph48%29.77 "Hg10 mi
8:00 pm84 °FPassing clouds.3 mph29%29.77 "HgN/A
7:00 pm86 °FClear.6 mph19%29.74 "Hg10 mi
5:00 pm91 °FSunny.6 mph23%29.71 "Hg10 mi
4:00 pm93 °FSunny.10 mph21%29.71 "Hg10 mi
3:00 pm99 °FSunny.12 mph11%29.71 "Hg10 mi
2:00 pm97 °FSunny.10 mph13%29.71 "Hg10 mi
1:00 pm97 °FSunny.9 mph17%29.74 "Hg10 mi
12:00 pm95 °FPassing clouds.8 mph22%29.77 "HgN/A
11:00 am93 °FSunny.7 mph24%29.77 "Hg10 mi
10:00 am93 °FPassing clouds.5 mph24%29.80 "HgN/A
9:00 am90 °FPassing clouds.5 mph29%29.80 "HgN/A
8:00 am88 °FSunny.2 mph33%29.77 "Hg10 mi
6:00 am75 °FSunny.2 mph39%29.77 "Hg10 mi
5:00 am77 °FClear.1 mph34%29.74 "Hg10 mi
4:00 am77 °FClear.No wind34%29.74 "Hg10 mi
3:00 am81 °FPassing clouds.3 mph28%29.71 "HgN/A
2:00 am79 °FClear.3 mph54%29.71 "Hg10 mi
1:00 am79 °FClear.1 mph54%29.71 "Hg10 mi
12:00 am77 °FClear.1 mph69%29.74 "Hg10 mi
11:00 pm
Sun, Apr 23
79 °FClear.2 mph65%29.77 "Hg10 mi
10:00 pm79 °FClear.5 mph65%29.77 "Hg10 mi
Weather by CustomWeather, © 2017

See weather overviewHow to use our weather pages